Location: Düderode
(51.8092°N, 10.1065°E)
Time: 03:28:04
(UTC+00:00)

Daily predictions for brighter satellites

Satellite Brightness Start Highest point End
(mag) Time Altitude Azimuth Time Altitude Azimuth Time Altitude Azimuth
Cosmos 1943 Rocket 3.8 00:07:06 26° ENE 00:07:06 26° ENE 00:10:04 10° NE
Lacrosse 4 Rocket 4.1 00:09:53 17° NNE 00:09:53 17° NNE 00:10:55 10° NNE
CZ-2D R/B 3.9 00:12:26 10° NE 00:15:41 25° ENE 00:15:41 25° ENE
Resurs 1-4 Rocket 3.8 00:14:42 10° NNE 00:18:06 27° ENE 00:18:06 27° ENE
IDEFIX/ARIANE 42P 4.3 00:27:38 10° NE 00:31:06 25° ENE 00:31:06 25° ENE
BREEZE-M DEB (TANK) 4.3 00:40:53 48° ESE 00:40:53 48° ESE 00:51:06 10° E
Lacrosse 5 3.9 00:50:03 21° E 00:50:03 21° E 00:52:00 10° ENE
ATLAS CENTAUR R/B 4.2 00:51:29 14° E 00:51:29 14° E 00:52:25 10° ENE
ATLAS 5 CENTAUR R/B 3.9 00:52:26 17° ENE 00:52:26 17° ENE 00:53:34 10° NE
ATLAS 2AS CENTAUR R/B 4.2 00:53:53 10° WNW 01:00:28 33° N 01:06:45 10° NE
Nadezhda 2 Rocket 4.5 01:19:12 71° NW 01:19:12 71° NW 01:24:52 10° N
SL-16 R/B 2.4 01:19:18 87° NNW 01:19:18 87° NNW 01:25:31 10° NNW
NPP 3.9 01:15:06 10° NNE 01:19:55 67° NE 01:19:55 67° NE
ADEOS II 2.6 01:15:39 10° NNE 01:20:29 52° E 01:20:29 52° E
Cosmos 2369 Rocket 3.0 01:21:55 40° ESE 01:21:55 40° ESE 01:27:04 10° NE
Thor Agena Rocket 4.1 01:18:10 10° NNE 01:22:41 51° E 01:22:41 51° E
CZ-4 R/B 4.2 01:33:52 10° NNE 01:38:36 63° E 01:38:36 63° E
Cosmos 1656 Rocket 4.0 01:39:30 52° ESE 01:39:35 53° ESE 01:44:56 10° NE
CZ-2C R/B 4.0 01:39:53 10° SE 01:44:59 38° ENE 01:50:02 10° N
Lacrosse 4 Rocket 3.6 01:46:01 18° NNW 01:46:01 18° NNW 01:48:51 10° NNE
Cosmos 2278 Rocket 3.5 01:47:12 28° NW 01:47:50 28° NW 01:52:44 10° NNE
Cosmos 1943 Rocket 2.5 01:48:36 52° NW 01:48:37 52° NW 01:54:08 10° NNE
ERS-2 4.0 01:46:37 10° NNE 01:48:33 28° NE 01:48:33 28° NE
ALOS 3.7 01:51:48 10° NNE 01:56:00 32° E 01:57:20 27° SE
EO 1 Delta rocket 3.8 01:56:36 79° N 01:56:36 79° N 02:01:16 10° N
CZ-2D R/B 2.4 01:52:06 10° N 01:57:00 55° NW 01:57:00 55° NW
Cosmos 1766 Rocket 3.8 01:54:40 10° N 01:58:57 68° NE 01:58:57 68° NE
Resurs 1-4 Rocket 2.5 01:54:14 10° N 01:59:10 51° WNW 01:59:10 51° WNW
Cosmos 1812 4.0 02:00:19 36° E 02:00:19 36° E 02:03:29 10° NNE
Cosmos 1867 3.5 01:55:27 10° NW 02:00:57 82° NE 02:06:25 10° SE
IRIDIUM 104 4.2 02:02:38 82° WSW 02:02:45 83° W 02:08:00 10° N
Nadezhda 1 Rocket 4.2 01:59:23 10° NNW 02:05:11 50° W 02:05:11 50° W
Cosmos 1346 Rocket 3.6 02:08:57 44° N 02:08:57 44° N 02:11:49 10° N
BREEZE-M DEB (TANK) 3.7 02:10:26 63° SSE 02:10:26 63° SSE 02:13:23 10° E
IDEFIX/ARIANE 42P 2.7 02:06:47 10° N 02:11:51 55° WNW 02:11:53 55° WNW
IRIDIUM 114 4.2 02:11:45 70° W 02:11:54 71° W 02:17:09 10° N
Cosmos 1666 4.3 02:14:31 10° NNW 02:16:18 26° NNW 02:16:18 26° NNW
Meteor 1-25 Rocket 4.1 02:12:41 10° NNW 02:18:21 77° W 02:19:41 53° S
Cosmos 2221 2.9 02:19:39 54° SE 02:20:17 62° E 02:24:36 10° NNE
SeaSat 1 2.4 02:16:02 10° NNE 02:20:59 78° ESE 02:21:50 60° S
IRIDIUM 103 4.3 02:20:53 60° W 02:21:05 60° W 02:26:16 10° N
Cosmos 2263 4.2 02:22:08 52° SSW 02:23:36 81° ESE 02:29:23 10° NNE
Cosmos 2297 4.0 02:24:19 47° W 02:25:20 53° NW 02:30:58 10° NNE
MSX 4.0 02:20:19 10° N 02:25:59 57° WNW 02:27:03 49° WSW
ATLAS CENTAUR R/B 1.4 02:27:11 79° W 02:27:20 81° NW 02:31:41 10° NE
Lacrosse 5 1.8 02:29:14 59° W 02:30:09 79° NNW 02:35:17 10° ENE
AQUA 4.4 02:25:44 10° N 02:30:12 41° WNW 02:30:12 41° WNW
Cosmos 44 3.0 02:29:51 67° S 02:30:21 76° SE 02:35:04 10° NE
Cosmos 2285 Rocket 4.0 02:31:12 46° WSW 02:33:00 65° WNW 02:39:17 10° NNE
ATLAS 5 CENTAUR R/B 2.4 02:33:43 32° NW 02:34:08 33° NNW 02:38:09 10° NE
Cosmos-2242 4.3 02:37:53 27° NW 02:37:53 27° NW 02:40:59 10° N
GEOS 3 Rocket 3.6 02:32:36 10° SE 02:37:51 86° NE 02:43:13 10° NW
Meteor 1-5 Rocket 4.4 02:33:51 10° N 02:39:34 78° ENE 02:45:26 10° SSE
Cosmos 1782 2.6 02:39:37 74° S 02:39:58 87° E 02:43:55 10° N
SL-27 R/B 3.5 02:38:19 10° N 02:41:22 40° ENE 02:44:24 10° SE
Cosmos 1933 3.2 02:50:35 61° SW 02:51:07 70° WNW 02:55:10 10° N
Cosmos 1408 Rocket 3.5 02:48:02 10° N 02:52:31 89° W 02:55:59 17° S
ATLAS 2AS CENTAUR R/B 4.0 02:46:31 10° NW 02:53:14 39° NNE 02:59:35 10° E
YAOGAN 11 4.5 02:54:20 41° W 02:54:20 41° W 02:58:00 10° NNW
Cosmos 2184 Rocket 4.1 02:49:34 13° S 02:55:08 73° E 03:01:18 10° NNE
Cosmos 2181 Rocket 4.1 02:49:35 10° NNW 02:55:52 59° W 03:00:35 18° SSW
Cosmos 1242 Rocket 3.4 02:52:43 10° NNW 02:54:57 33° NW 02:54:57 33° NW
Sich 1 4.1 02:53:40 10° N 02:57:57 46° ENE 03:02:11 10° SSE
Cosmos 1709 Rocket 4.3 02:55:58 34° WSW 02:58:00 45° WNW 03:03:56 10° N
Okean 3 Rocket 3.8 02:53:51 10° NNW 02:58:03 46° W 02:58:25 45° WSW
YAOGAN 6 4.1 02:55:18 10° NNE 02:58:33 33° E 03:01:41 11° SSE
ADEOS II 3.1 02:55:44 10° N 03:00:14 30° WNW 03:01:24 27° W
SL-16 R/B 3.9 03:04:22 19° WNW 03:04:22 19° WNW 03:08:02 10° NW
Cosmos 2369 Rocket 2.7 03:03:42 31° W 03:05:52 45° NW 03:11:16 10° NNE
Cosmos 921 Rocket 3.9 03:05:51 32° W 03:06:45 35° WNW 03:10:55 10° N
Cosmos 1743 Rocket 3.7 03:02:32 10° N 03:07:01 75° ENE 03:11:29 10° SSE
Helios 1A 2.9 03:05:41 19° S 03:08:34 63° WSW 03:12:41 10° NNW
Cosmos 2297 Rocket 3.1 03:03:34 10° NNW 03:09:07 51° NE 03:14:38 10° SE
CZ-2C R/B 3.3 03:06:14 10° NNE 03:10:57 61° ESE 03:15:46 10° S
Cosmos 923 Rocket 3.9 03:08:46 26° SSW 03:11:43 85° WNW 03:16:58 10° NNE
NOSS 3-4 (A) 3.7 03:05:22 10° NW 03:12:10 76° SW 03:19:57 10° SE
NOSS 3-4 (C) 3.7 03:05:28 10° NW 03:12:16 77° SW 03:20:04 10° SE
CZ-2C R/B 2.3 03:07:45 10° NNE 03:12:33 88° WNW 03:16:12 18° SSW
BREEZE-M R/B 4.2 03:07:11 22° WSW 03:13:01 67° S 03:16:11 10° E
Cosmos 2154 Rocket 4.1 03:11:26 10° S 03:17:42 81° E 03:23:58 10° NNE
Cosmos 1680 Rocket 3.5 03:16:17 19° SSW 03:20:03 87° ESE 03:25:23 10° NNE
FENGYUN 3A 4.1 03:15:12 10° N 03:20:22 45° WNW 03:23:11 25° WSW
Meteor 1-26 Rocket 4.2 03:16:42 20° SSW 03:20:42 68° WNW 03:26:29 10° N
BREEZE-M DEB (TANK) 3.6 03:17:33 23° WSW 03:21:39 58° S 03:24:35 10° E
NOSS 3-3 (A) 4.0 03:18:44 26° WSW 03:22:13 74° NW 03:29:01 10° NE
NOSS 3-3 (C) 3.9 03:18:50 26° WSW 03:22:19 75° NW 03:29:07 10° NE
ERS-2 3.8 03:20:08 10° NNW 03:22:22 17° WNW 03:22:22 17° WNW
Cosmos 1484 Rocket 3.6 03:19:08 10° NNE 03:22:46 47° E 03:26:27 10° S
NOSS 2-1 (C) 3.6 03:18:47 10° NW 03:22:48 88° SW 03:28:24 10° SE
Cosmos 1842 Rocket 3.7 03:21:12 28° SW 03:23:16 52° WNW 03:27:34 10° N
Cosmos 1656 Rocket 4.5 03:20:51 23° W 03:23:24 35° NW 03:28:28 10° NNE
Nadezhda 3 Rocket 3.9 03:18:06 10° NNW 03:24:23 78° W 03:30:42 10° S
CZ-2C R/B 3.0 03:19:54 10° SSW 03:25:12 43° W 03:30:29 10° NNW
Cosmos 2227 Rocket 3.4 03:20:06 10° NNW 03:25:32 44° NE 03:30:56 10° ESE
NOSS 2-1 (D) 3.6 03:23:47 10° NW 03:27:51 83° SW 03:33:26 10° SE
Cosmos 1371 Rocket 4.0 03:24:22 10° NNW 03:29:25 54° WSW 03:34:26 10° S
IRS-1D 3.9 03:24:47 10° N 03:29:27 42° WNW 03:32:11 22° WSW
ARIANE 5 R/B 3.3 03:24:38 10° NNE 03:29:44 54° E 03:34:49 10° S
Cosmos 2112 Rocket 4.0 03:26:32 15° SSW 03:30:52 89° WNW 03:36:13 10° NNE
GP-B 3.9 03:28:54 10° N 03:33:16 53° E 03:37:36 10° SSE
ALOS 2.9 03:29:05 10° N 03:33:23 38° WNW 03:35:46 22° WSW
Genesis I 3.6 03:30:52 19° SSW 03:33:31 59° SE 03:37:22 10° NE
Cosmos 1943 Rocket 4.1 03:30:06 10° WNW 03:33:42 17° NNW 03:37:22 10° NNE
Cosmos 1515 3.8 03:30:09 10° S 03:33:50 72° E 03:37:33 10° NNE
Cosmos 1812 4.0 03:35:03 21° W 03:35:34 21° WNW 03:38:32 10° NNW
Cosmos 972 Rocket 4.4 03:29:31 10° NNW 03:35:47 55° WSW 03:41:19 10° S
CZ-2D R/B 4.1 03:34:07 10° NNW 03:36:14 12° NW 03:38:19 10° WNW
Cosmos 1610 Rocket 4.4 03:30:12 10° S 03:36:21 88° WNW 03:42:34 10° N
Cosmos 2056 Rocket 3.6 03:32:11 10° NNW 03:37:11 49° WSW 03:42:13 10° S
Resurs 1-4 Rocket 4.2 03:36:12 10° NNW 03:38:04 12° NW 03:39:56 10° WNW
Cosmos 1500 Rocket 3.8 03:35:55 10° NNW 03:40:03 45° W 03:44:10 10° SSW
Cosmos 2074 Rocket 4.2 03:37:02 11° SSW 03:43:00 55° WNW 03:49:13 10° N
Cosmos 1805 Rocket 3.7 03:42:40 10° NNW 03:47:00 54° W 03:51:21 10° S
Helios 1B rocket 3.3 03:44:48 10° NNE 03:48:43 49° E 03:52:36 10° S
COSMO-SKYMED 1 4.0 03:44:47 10° SE 03:48:53 42° ENE 03:53:00 10° N
Cosmos 1624 Rocket 4.4 03:44:25 10° NW 03:49:24 41° WSW 03:54:19 10° S
Cosmos 1420 Rocket 4.4 03:47:02 10° NW 03:51:51 40° WSW 03:56:39 10° S
USA 276 3.0 03:51:00 18° SW 03:52:37 33° SSE 03:55:17 10° E
Cosmos 1110 Rocket 4.4 03:48:48 10° NNW 03:53:58 66° ENE 03:59:08 10° SE
Cosmos 192 4.3 03:51:18 10° NNW 03:56:15 78° WSW 04:01:08 10° SSE
CBERS-1 4.4 03:52:17 10° N 03:57:10 46° WNW 04:02:01 10° SW
SeaSat 1 3.7 03:54:02 10° NNE 03:58:05 26° NW 04:01:35 12° W
Cosmos 2221 4.1 03:56:25 15° W 03:58:12 18° WNW 04:01:16 10° NNW
Meteor 2-6 Rocket 4.4 03:55:01 10° SSW 04:00:57 66° WNW 04:06:53 10° N
Meteor 1-10 Rocket 4.4 03:56:34 10° S 04:02:31 90° WNW 04:08:30 10° NNE
Cosmos 1656 4.2 03:57:52 10° SSW 04:03:12 59° ESE 04:08:37 10° NE
USA 32 4.1 03:58:10 10° NNW 04:03:20 61° W 04:08:29 10° S
Orbus 7S? 4.2 03:56:42 10° WNW 04:03:28 44° SW 04:06:49 10° SSE
USA 281 3.2 03:57:46 10° SSE 04:04:20 78° WSW 04:10:58 10° NNW
ATLAS CENTAUR R/B 3.1 04:02:53 10° W 04:06:21 23° NNW 04:09:47 10° NNE
Cosmos 1461 3.1 04:02:03 10° SW 04:06:28 86° SE 04:11:06 10° NE
Cosmos 1331 Rocket 4.3 04:01:24 10° NNW 04:06:40 76° ENE 04:11:55 10° SSE
Cosmos 2263 Rocket 4.1 04:01:49 10° NNW 04:06:50 32° NE 04:11:51 10° ESE
Cosmos 1743 2.7 04:03:19 10° NNW 04:07:00 53° W 04:10:38 10° S
Cosmos 44 4.5 04:08:15 11° W 04:12:02 29° NNW 04:16:14 10° NNE
Lacrosse 5 2.6 04:08:42 10° WNW 04:13:37 47° N 04:18:33 10° ENE
Cosmos 1452 Rocket 3.5 04:09:22 10° NNW 04:14:39 71° WSW 04:19:53 10° SSE
SL-27 R/B 3.9 04:13:38 10° WNW 04:15:33 15° W 04:17:28 10° SW
SL-08 R/B 3.3 04:11:09 10° S 04:15:57 64° WSW 04:20:44 10° NNW
Cosmos 494 Rocket 4.4 04:11:22 10° SSW 04:16:35 69° ESE 04:21:50 10° NNE
ATLAS 5 CENTAUR R/B 3.7 04:16:40 10° NW 04:19:47 19° N 04:23:19 10° NE
Cosmos 1151 Rocket 3.0 04:16:14 10° SSW 04:20:32 66° WNW 04:24:52 10° N
NOSS 2-1 (E) 4.3 04:17:26 10° WNW 04:21:31 41° SW 04:27:06 10° SSE
DMSP B5D2-2 4.1 04:17:34 10° S 04:22:44 60° W 04:27:54 10° NNW
Envisat 3.4 04:18:57 10° N 04:23:46 44° WNW 04:28:33 10° SW
SL-8 Rocket 4.1 04:17:31 10° S 04:23:50 86° W 04:30:09 10° N
Cosmos 1048 Rocket 4.3 04:20:43 10° SSW 04:26:04 76° ESE 04:31:28 10° NNE
Okean 1 3.9 04:23:36 10° S 04:27:28 61° E 04:31:24 10° NNE
IRS-1C 4.4 04:22:42 10° N 04:27:52 51° WNW 04:33:01 10° SW
YAOGAN 6 3.9 04:28:40 10° NNW 04:31:29 23° WNW 04:34:18 10° WSW
DELTA 2 DEB (DPAF) 4.2 04:27:37 10° S 04:31:55 55° WSW 04:36:15 10° NNW
PSLV R/B 3.9 04:29:04 10° NNE 04:33:20 70° ESE 04:37:35 10° S
Cosmos 1666 Rocket 3.8 04:30:26 10° NNW 04:34:33 45° W 04:38:41 10° SSW
Cosmos 1697 Rocket 3.7 04:29:37 10° S 04:35:01 49° ESE 04:40:25 10° NE
Sich 1 4.2 04:31:47 10° NW 04:35:15 23° W 04:38:41 10° SW
Cosmos 1933 Rocket 4.3 04:30:59 10° N 04:35:21 59° ENE 04:39:44 10° SSE
